Moab, UT

6:35 AM MDT on March 28, 2017 (GMT -0600)
Canyonlands

Weather History for KCNY - August, 2014

Change the Weather History Date:

Friday, August 22, 2014

  Actual Average Record
Temperature  
Mean Temperature 71 °F 76 °F  
Max Temperature 81 °F 91 °F 105 °F (1991)
Min Temperature 60 °F 60 °F 47 °F (1974)
Degree Days  
Heating Degree Days 0 0  
Month to date heating degree days 0 0  
Since 1 June heating degree days 0 17  
Since 1 July heating degree days 0 0  
Cooling Degree Days 6 11  
Month to date cooling degree days 248 290  
Year to date cooling degree days 1170 1083  
Since 1 June cooling degree days 1071 1019  
Growing Degree Days 20 (Base 50)    
Moisture  
Dew Point 50 °F    
Average Humidity 56    
Maximum Humidity 78    
Minimum Humidity 33    
Precipitation  
Precipitation T in 0.02 in 0.53 in (1958)
Month to date precipitation 1.38 0.58  
Year to date precipitation 5.13 5.12  
Sea Level Pressure  
Sea Level Pressure 29.88 in    
Wind  
Wind Speed 7 mph (SSE)    
Max Wind Speed 24 mph    
Max Gust Speed 28 mph    
Visibility 10 miles    
Events Rain    
T = Trace of Precipitation, MM = Missing Value Source: NWS Daily Summary

Daily Weather History Graph

Daily Weather History Graph

Search for Another Location

Airport or City:

Trip Planner

Search our weather history database for the weather conditions in past years. The results will help you decide how hot, cold, wet, or windy it might be!

Date:

Astronomy

Aug. 22, 2014 Rise Set
Actual Time 6:39 AM MDT 8:03 PM MDT
Civil Twilight 6:11 AM MDT 8:31 PM MDT
Nautical Twilight 5:37 AM MDT 9:04 PM MDT
Astronomical Twilight 5:02 AM MDT 9:40 PM MDT
Moon 4:05 AM MDT (8/22) 6:13 PM MDT (8/22)
Length of Visible Light 14h 20m
Length of Day
13h 24m
Waning Crescent, 7% of the Moon is Illuminated
Aug 22
Waning Crescent
Aug 25
New
Sep 2
First Quarter
Sep 8
Full
Sep 15
Last Quarter

Hourly Weather History & Observations

Time (MDT) Temp. Dew Point Humidity Pressure Visibility Wind Dir Wind Speed Gust Speed Precip Events Conditions
12:53 AM 68.0 °F 51.1 °F 55% 29.87 in 10.0 mi SW 5.8 mph - N/A   Clear
1:53 AM 66.0 °F 53.1 °F 63% 29.87 in 10.0 mi Variable 3.5 mph - N/A   Clear
2:53 AM 66.2 °F 51.8 °F 60% 30.03 in 10.0 mi NNW 5.8 mph - N/A   Clear
3:53 AM 66.0 °F 53.1 °F 63% 29.88 in 10.0 mi Calm Calm - N/A   Clear
4:53 AM 64.0 °F 53.1 °F 67% 29.88 in 10.0 mi Calm Calm - N/A   Partly Cloudy
5:53 AM 64.4 °F 51.8 °F 64% 30.05 in 10.0 mi East 3.5 mph - N/A   Mostly Cloudy
6:53 AM 61.0 °F 53.1 °F 75% 29.91 in 10.0 mi Calm Calm - N/A   Scattered Clouds
7:53 AM 66.9 °F 53.1 °F 61% 29.90 in 10.0 mi Calm Calm - 0.00 in Rain Light Rain
8:53 AM 71.6 °F 51.8 °F 50% 30.07 in 10.0 mi Calm Calm - N/A   Overcast
9:53 AM 73.9 °F 48.9 °F 41% 29.91 in 10.0 mi South 8.1 mph - N/A   Mostly Cloudy
10:53 AM 73.9 °F 48.9 °F 41% 29.91 in 10.0 mi SSE 6.9 mph - N/A   Overcast
11:53 AM 75.0 °F 48.0 °F 38% 29.91 in 10.0 mi WNW 3.5 mph - N/A   Overcast
12:53 PM 75.9 °F 48.0 °F 37% 29.88 in 10.0 mi WSW 4.6 mph - N/A   Overcast
1:53 PM 77.0 °F 48.0 °F 36% 29.86 in 10.0 mi Variable 4.6 mph - N/A   Clear
2:53 PM 80.6 °F 48.2 °F 32% 29.99 in 10.0 mi South 12.7 mph - N/A   Scattered Clouds
3:21 PM 78.8 °F 51.8 °F 39% 29.97 in 10.0 mi SE 20.7 mph - N/A   Scattered Clouds
3:53 PM 75.0 °F 51.1 °F 43% 29.83 in 10.0 mi WNW 8.1 mph - N/A   Overcast
4:53 PM 79.0 °F 50.0 °F 36% 29.79 in 10.0 mi East 5.8 mph - N/A   Partly Cloudy
5:53 PM 79.0 °F 48.9 °F 35% 29.78 in 10.0 mi SE 15.0 mph - N/A   Mostly Cloudy
6:53 PM 75.9 °F 46.9 °F 36% 29.78 in 10.0 mi SSE 12.7 mph - N/A   Scattered Clouds
7:53 PM 73.9 °F 48.0 °F 40% 29.75 in 10.0 mi SE 13.8 mph - N/A   Clear
8:53 PM 73.9 °F 48.0 °F 40% 29.76 in 10.0 mi SE 11.5 mph - N/A   Overcast
9:53 PM 72.0 °F 50.0 °F 46% 29.76 in 10.0 mi SSE 16.1 mph - N/A   Partly Cloudy
10:53 PM 70.0 °F 50.0 °F 49% 29.77 in 10.0 mi SE 13.8 mph - N/A   Partly Cloudy
11:53 PM 70.0 °F 50.0 °F 49% 29.77 in 10.0 mi SE 12.7 mph - N/A   Mostly Cloudy